RAPTOR 2

operational
NORAD ID: 58959 Int'l Des: 2024-028 Owner: SDA Country: US
LEOCIRCULAR

RAPTOR 2について

説明を読み込み中...

リアルタイム位置

3D地球を読み込み中...

次回通過

高度履歴

Altitude vs Time

uPlot chart will show altitude changes over time

軌道要素

1 58959U 24028E 26071.50334293 -.00000029 00000-0 54311-4 0 9997
2 58959 39.9900 127.2140 0011002 57.2992 302.8814 13.70548269103806
Epoch: Mar 12, 2026 • Age: 18 hours

現在のステータス

高度 1009.9 km
速度 7.34 km/s
衛星直下点 -22.13°S, 111.17°W
打ち上げ日 Feb 14, 2024
運用期間 2 years
タイプ other

技術仕様

分類 Payload
質量 1000.00 kg
乾燥質量 1000.00 kg
総質量 1000.00 kg
長さ 1.00 m
直径 0.60 m
スパン 2.00 m
形状 Box + panels
製造者 HARRL3
バスタイプ TPL0-L3H
フェーズステータス In Orbit
所有者/国 SDA/US

大規模コンステレーション

Loading constellations...